Flag for USA

Past Weather in Joshua Tree, California, USA — Yesterday and Last 2 Weeks

Now
110 °F

Passing clouds.


Feels Like: 105 °F
Forecast: 107 / 81 °F
Wind: 7 mph from West

Location: Twentynine Palms - Marine Corps Combat Center

Current Time: Jul 11, 2020 at 6:25:38 pm

Latest Report: Jul 11, 2020 at 5:56 pm


Visibility: 10 mi

Pressure: 29.82 "Hg (27.25 "Hg at 834m altitude)

Humidity: 11%

Dew Point: 45 °F

Location of Joshua TreeLocation

Past Weather in Joshua Tree — Graph

°F

Joshua Tree Temperature Yesterday

Maximum temperature yesterday: 107 °F (at 5:56 pm)
Minimum temperature yesterday: 73 °F (at 5:56 am)
Average temperature yesterday: 92 °F

High & Low Weather Summary for the Past Weeks

 TemperatureHumidityPressure
High109 °F (Jul 11, 4:56 pm)39% (Jun 29, 5:56 am)29.97 "Hg (Jun 29, 5:56 am)
Low66 °F (Jun 29, 4:56 am)3% (Jul 2, 1:56 pm)29.50 "Hg (Jun 28, 5:56 pm)
Average88 °F16%29.80 "Hg
* Reported Jun 26 4:56 pm — Jul 11 4:56 pm, Joshua Tree. Weather by CustomWeather, © 2020

Note: Actual official high and low records may vary slightly from our data, if they occured in-between our weather recording intervals... More about our weather records

Joshua Tree Weather History for the Previous 24 Hours

Scroll right to see more
 ConditionsComfort  
Time TempWeatherWind HumidityBarometerVisibility
4:56 pm
Sat, Jul 11
109 °FPassing clouds.No wind12%29.84 "Hg10 mi
11:56 am106 °FSunny.No wind11%29.94 "Hg10 mi
10:56 am103 °FSunny.7 mph11%29.95 "Hg10 mi
9:56 am99 °FSunny.3 mph13%29.96 "Hg10 mi
8:56 am94 °FSunny.8 mph16%29.96 "Hg10 mi
7:56 am90 °FSunny.3 mph18%29.97 "Hg10 mi
6:56 am85 °FSunny.5 mph21%29.96 "Hg10 mi
5:56 am84 °FSunny.7 mph22%29.94 "Hg10 mi
4:56 am83 °FClear.9 mph23%29.91 "Hg10 mi
3:56 am83 °FClear.6 mph21%29.90 "Hg10 mi
2:56 am85 °FClear.6 mph19%29.90 "Hg10 mi
1:56 am86 °FClear.9 mph19%29.90 "Hg10 mi
12:56 am85 °FClear.3 mph18%29.91 "Hg10 mi
11:56 pm
Fri, Jul 10
90 °FClear.9 mph15%29.90 "Hg10 mi
10:56 pm93 °FClear.5 mph13%29.90 "Hg10 mi
9:56 pm93 °FClear.7 mph13%29.90 "Hg10 mi
8:56 pm96 °FClear.9 mph11%29.87 "Hg10 mi
7:56 pm99 °FSunny.13 mph11%29.86 "Hg10 mi
6:56 pm103 °FSunny.N/A10%29.86 "Hg10 mi
Weather by CustomWeather, © 2020

See weather overview